Regional Weather Roundup
Issued by NWS

Home | Current Version | Previous Version | Text Only | Print | Product List | Glossary Off
Versions: 1 2 3 4 5 6 7 8 9 10 11 12 13 14 15 16 17 18 19 20 21 22 23 24 25 26 27 28

000
ASUS45 KCYS 281310
RWRWY

WYOMING REGIONAL WEATHER ROUNDUP
NATIONAL WEATHER SERVICE CHEYENNE WY
700 AM MDT SUN AUG 28 2016

NOTE:  "FAIR" INDICATES FEW OR NO CLOUDS BELOW 12,000 FEET
WITH NO SIGNIFICANT WEATHER AND/OR OBSTRUCTIONS TO VISIBILITY.

WYZ001-281400-
YELLOWSTONE NATIONAL PARK

CITY           SKY/WX    TMP DP  RH WIND       PRES   REMARKS
LK YELLOWSTONE   N/A     32  29  88 CALM      30.31R
W YELLOWSTONE  NOT AVBL

$$
WYZ002>013-054>058-071-098>099-281400-
NORTHERN WYOMING

CITY           SKY/WX    TMP DP  RH WIND       PRES   REMARKS
JACKSON        CLEAR     34  27  75 CALM      30.25R
CODY           FAIR      63  28  27 SW7       30.07R
GREYBULL       FAIR      52  29  41 SE5       30.02R
WORLAND        FAIR      46  36  68 CALM      30.04R
SHERIDAN       FAIR      50  39  66 CALM      29.98R
BUFFALO        FAIR      65  26  23 W10       30.05R
GILLETTE       FAIR      47  35  63 CALM      30.01R
HULETT         FAIR      57  37  47 SW6       30.02R
NEWCASTLE      FAIR      50  43  76 CALM      30.04R

$$
WYZ014>020-022>026-101>103-281400-
CENTRAL WYOMING

CITY           SKY/WX    TMP DP  RH WIND       PRES   REMARKS
BIG PINEY      FAIR      33  25  72 CALM      30.29R
PINEDALE       FAIR      32  28  86 NW6       30.30R WCI  26
DUBOIS         FAIR      45  23  42 W15       30.25R
LANDER         FAIR      57  29  34 W5        30.13R
RIVERTON       FAIR      52  30  43 SW8       30.13R
CASPER         FAIR      60  34  37 SW13      30.13R
DOUGLAS        FAIR      45  37  73 NW3       30.12R

$$
WYZ021-027>030-104>119-281400-
SOUTHERN WYOMING

CITY           SKY/WX    TMP DP  RH WIND       PRES   REMARKS
EVANSTON       FAIR      49  24  37 S8        30.29R
FORT BRIDGER   FAIR      54  22  29 W9        30.30R
ROCK SPRINGS   FAIR      50  25  37 S5        30.28R
DIXON          FAIR      46  34  63 SE7       30.32R
RAWLINS        FAIR      51  33  50 W5        30.27R
SARATOGA       FAIR      50  32  50 S3        30.31R
LARAMIE        FAIR      46  30  53 S9        30.30R
CHEYENNE       FAIR      54  32  43 W13       30.21R
TORRINGTON     FAIR      50  47  89 E6        30.08R
PINE BLUFFS    FAIR      46  41  81 W7        30.16R

$$




USA.gov is the U.S. government's official web portal to all federal, state and local government web resources and services.